Lid_Strength_Index
-1 -0 0 2 9 9 12 9 7 8 7 4 4 5 7 6 7 11 2 1 0 0 -1 -1 -2 -1 -1 -1 -1 -1 -1 -2 -2 -2 -1 -1 -2 -2 -2 -2 -2 -2 -1 -1 -1 -1 -1 -1 -1
2 2 2 5 10 13 10 7 8 7 6 4 4 5 6 7 4 3 2 0 -0 -0 -1 -1 -1 -1 -1 -1 -1 -1 -2 -2 -2 -1 -1 -1 -1 -1 -1 -2 -2 -1 -1 -1 -1 -1 -1 -1 -1
1 1 4 6 8 11 10 7 7 5 4 5 7 4 5 6 3 2 1 0 -0 -0 -1 -1 -1 -2 -1 -1 -1 -2 -2 -2 -2 -1 -1 -1 -1 -1 -1 -1 -1 -1 -1 -1 -1 -1 -2 -2 -2
2 3 4 7 8 7 7 6 5 6 6 5 6 7 4 2 2 1 0 -0 0 -0 -1 -1 -1 -2 -2 -1 -1 -1 -2 -2 -2 -2 -1 -1 -1 -1 -1 -1 -1 -1 -1 -1 -1 -1 -2 -2 -2
2 4 7 8 8 6 5 5 5 7 8 6 5 7 6 2 1 1 0 0 0 0 -0 -1 -2 -2 -2 -1 -1 -1 -1 -2 -1 -1 -1 -1 -1 -1 -1 -1 -1 -1 -1 -1 -1 -1 -2 -2 -2
5 5 8 9 8 6 5 6 6 6 6 6 6 6 5 1 1 1 0 0 -0 0 -0 -1 -1 -2 -2 -1 -2 -1 -1 -1 -1 -1 -1 -1 -1 -1 -1 -1 -1 -1 -1 -1 -1 -2 -2 -2 -2
5 7 8 8 7 7 6 5 7 6 7 8 6 7 4 3 1 1 0 0 -0 -0 -0 -1 -1 -1 -2 -1 -1 -2 -1 -1 -1 -1 -1 -1 -1 -1 -1 -1 -1 -1 -1 -2 -2 -2 -2 -2 -2
4 6 8 7 8 8 6 6 6 7 8 4 5 7 7 3 1 1 0 0 0 -0 -0 -0 -1 -1 -1 -1 -1 -1 -1 -1 -1 -1 -1 -1 -1 -1 -1 -2 -2 -2 -2 -2 -2 -2 -2 -2 -2
2 7 9 7 7 7 5 7 5 4 6 5 4 4 3 1 1 1 1 1 1 0 0 -0 -0 -0 -1 -1 -1 -1 -1 -1 -1 -1 -1 -1 -1 -1 -1 -2 -3 -2 -2 -2 -2 -2 -2 -2 -2
5 7 7 5 5 6 6 6 6 6 6 6 5 3 2 2 2 2 2 2 2 1 1 0 -0 -1 -1 -1 -1 -1 -1 -1 -1 -1 -1 -1 -1 -2 -1 -2 -3 -2 -2 -2 -2 -2 -2 -1 -1
5 8 6 5 5 5 6 6 5 7 8 6 5 4 3 3 3 3 3 2 2 1 0 0 -0 -1 -1 -0 -0 -1 -1 -1 -1 -2 -2 -2 -1 -2 -1 -1 -1 -1 -1 -1 -1 -1 -1 -0 -0
6 6 5 4 4 5 6 5 6 6 6 4 4 3 3 3 3 3 3 2 2 1 1 0 -0 -1 -1 -1 -1 -2 -1 -1 -1 -1 -2 -2 -1 -1 -1 -1 -1 -1 -1 -0 -1 -0 -0 -0 -1
6 6 4 4 5 5 5 6 6 6 4 3 4 4 5 4 4 4 4 3 3 3 3 3 2 1 -0 -0 -1 -1 -1 -1 -2 -2 -2 -2 -1 -0 -1 -1 -1 -1 -1 -1 -0 -0 -0 -0 -0
5 5 5 4 5 5 6 6 6 5 4 5 5 6 5 4 4 3 3 5 4 4 4 4 4 3 2 -0 -0 -0 -1 -2 -2 -2 -2 -2 -2 -1 -0 -0 -0 -1 -1 -1 -1 -0 -0 0 -0
4 6 5 5 5 6 5 8 7 5 5 6 6 6 6 6 6 5 4 4 3 4 4 4 3 4 3 2 1 0 -1 -1 -1 -2 -3 -2 -3 -2 -1 -0 -0 -0 -1 -1 -1 -0 -0 0 0
6 6 8 6 5 5 5 10 6 4 6 6 6 6 7 7 7 6 5 5 5 5 5 5 6 6 4 4 2 1 0 0 -0 -0 -1 -1 -1 -1 -1 -0 -0 -1 -1 -1 -0 0 0 1 0
7 9 8 7 5 5 6 9 6 4 6 7 6 6 7 7 7 7 7 6 6 5 5 5 5 6 5 4 3 2 2 1 1 2 2 2 2 0 -0 -0 -0 -0 -0 -0 0 0 1 1 1
9 9 8 8 6 6 7 8 6 5 6 7 7 7 7 8 8 7 7 7 6 6 5 5 6 5 5 5 4 4 4 4 4 5 5 5 4 3 2 3 2 1 1 1 1 1 1 1 1
7 8 8 7 6 6 7 8 7 6 5 7 7 7 8 8 7 7 7 7 7 6 5 6 6 6 6 6 7 5 6 6 6 5 5 6 7 5 5 6 5 4 5 4 3 3 1 1 1
7 8 8 7 6 6 8 8 6 6 5 5 7 7 8 8 8 7 7 7 6 6 6 6 6 6 6 5 5 4 4 4 4 5 4 6 5 5 6 7 7 7 7 6 5 5 5 3 3
7 8 8 8 7 6 8 9 8 6 5 5 5 7 7 8 8 8 7 7 6 6 6 5 5 5 5 5 5 5 4 4 6 6 6 5 4 5 4 5 6 6 7 7 6 6 6 6 5
8 6 7 7 9 11 7 12 9 7 7 6 6 7 7 8 8 8 7 7 7 6 5 5 4 4 4 4 5 4 5 6 5 5 5 4 4 4 4 4 5 5 6 6 7 6 6 6 7
7 6 7 7 9 9 9 11 9 8 9 8 8 7 7 7 7 8 8 8 7 6 5 5 4 4 4 3 3 4 5 5 4 5 4 4 4 4 4 5 5 5 5 5 5 7 6 7 7
5 7 7 7 8 12 10 10 10 10 9 8 8 8 7 7 7 7 6 6 6 6 6 5 4 4 3 3 3 4 4 5 5 5 6 6 5 5 4 4 4 5 5 5 5 5 5 5 6
6 8 11 12 12 13 9 10 9 8 7 8 9 9 8 7 7 7 7 7 6 7 6 6 4 4 3 4 4 4 4 4 5 5 6 6 6 6 5 5 5 5 5 6 6 6 6 5 5
7 8 11 15 14 12 9 11 11 6 6 7 8 8 8 8 7 7 7 7 7 7 6 6 5 5 4 4 4 4 4 5 5 5 5 6 6 6 5 6 6 6 6 6 6 6 6 6 6
8 9 7 10 9 12 11 11 10 9 9 9 10 9 9 8 8 7 7 7 7 7 6 6 5 5 5 5 4 4 4 4 4 4 5 5 5 6 6 6 7 7 7 7 7 7 7 7 7
7 6 10 10 15 16 12 14 13 12 11 11 10 10 9 8 8 8 8 8 7 7 6 6 6 6 5 5 4 5 5 4 4 4 4 4 4 5 5 6 7 7 7 7 8 8 9 9 8
8 9 8 8 10 16 18 15 8 10 10 10 10 9 10 9 9 9 8 8 8 7 7 7 7 6 6 5 4 3 4 3 4 4 4 5 4 5 5 6 7 8 8 8 8 9 9 9 9
7 8 8 12 12 11 12 15 8 8 9 9 10 10 10 9 9 9 8 8 8 8 7 6 6 6 5 4 4 3 3 4 4 4 4 5 5 5 5 5 6 7 7 7 8 9 9 9 10